Weather History for Chester, CT

Change the Weather History Date:

Friday, August 2, 2013

  Actual Average (KHVN) Record (KHVN)
Temperature  
Mean Temperature 73 °F -  
Max Temperature 80 °F 78 °F 100 °F (1975)
Min Temperature 66 °F 63 °F 37 °F (1996)
Cooling Degree Days 8    
Growing Degree Days 23 (Base 50)    
Moisture  
Dew Point 64 °F    
Average Humidity 78    
Maximum Humidity 100    
Minimum Humidity 48    
Precipitation  
Precipitation 0.15 in - - ()
Sea Level Pressure  
Sea Level Pressure 29.86 in    
Wind  
Wind Speed 5 mph (WSW)    
Max Wind Speed 10 mph    
Max Gust Speed 18 mph    
Visibility 8 miles    
Events Rain    
Averages and records for this station are not official NWS values.
T = Trace of Precipitation, MM = Missing Value Source: NWS Daily Summary

Daily Weather History Graph

Daily Weather History Graph

Search for Another Location

Airport:

Trip Planner

Search our weather history database for the weather conditions in past years. The results will help you decide how hot, cold, wet, or windy it might be!

Date:

Astronomy

Aug. 02, 2013 Rise Set
Actual Time 5:46 AM EDT 8:05 PM EDT
Civil Twilight 5:15 AM EDT 8:36 PM EDT
Nautical Twilight 4:36 AM EDT 9:14 PM EDT
Astronomical Twilight 3:54 AM EDT 9:56 PM EDT
Moon 2:04 AM EDT (8/2) 5:01 PM EDT (8/2)
Length of Visible Light 15h 21m
Length of Day
14h 19m
Waning Crescent, 16% of the Moon is Illuminated
Aug 2
Waning Crescent
Aug 6
New
Aug 14
First Quarter
Aug 20
Full
Aug 28
Last Quarter

Hourly Weather History & Observations

Time (EDT) Temp. Heat Index Dew Point Humidity Pressure Visibility Wind Dir Wind Speed Gust Speed Precip Events Conditions
12:15 AM 66.2 °F - 66.2 °F 100% 29.87 in 3.0 mi SE 3.5 mph - N/A   Overcast
12:35 AM 66.2 °F - 66.2 °F 100% 29.87 in 3.0 mi SE 4.6 mph - N/A   Overcast
12:55 AM 66.2 °F - 66.2 °F 100% 29.86 in 3.0 mi ESE 3.5 mph - N/A   Overcast
1:15 AM 66.2 °F - 66.2 °F 100% 29.85 in 3.0 mi South 3.5 mph - N/A   Overcast
1:35 AM 66.2 °F - 66.2 °F 100% 29.84 in 4.0 mi SE 4.6 mph - N/A   Overcast
1:55 AM 66.2 °F - 66.2 °F 100% 29.83 in 3.0 mi SE 4.6 mph - N/A   Overcast
2:15 AM 66.2 °F - 66.2 °F 100% 29.82 in 2.5 mi SSE 3.5 mph - N/A Rain Rain
2:35 AM 66.2 °F - 66.2 °F 100% 29.82 in 2.0 mi Calm Calm - N/A   Overcast
2:55 AM 66.2 °F - 66.2 °F 100% 29.81 in 1.5 mi SE 3.5 mph - 0.13 in Rain Rain
3:15 AM 66.2 °F - 66.2 °F 100% 29.81 in 1.0 mi SE 3.5 mph - 0.01 in Rain Light Rain
3:35 AM 66.2 °F - 66.2 °F 100% 29.81 in 1.8 mi SSE 3.5 mph - 0.01 in   Overcast
3:55 AM 66.2 °F - 66.2 °F 100% 29.80 in 1.8 mi Calm Calm - 0.02 in   Overcast
4:15 AM 66.2 °F - 66.2 °F 100% 29.80 in 3.0 mi Calm Calm - N/A   Overcast
4:35 AM 66.2 °F - 66.2 °F 100% 29.80 in 3.0 mi South 3.5 mph - N/A   Overcast
4:55 AM 68.0 °F - 68.0 °F 100% 29.80 in 3.0 mi Calm Calm - N/A   Overcast
5:15 AM 68.0 °F - 68.0 °F 100% 29.81 in 4.0 mi Calm Calm - N/A   Overcast
5:35 AM 68.0 °F - 68.0 °F 100% 29.81 in 2.5 mi North 4.6 mph - N/A   Overcast
5:55 AM 66.2 °F - 66.2 °F 100% 29.83 in 7.0 mi NNW 5.8 mph - N/A   Overcast
6:15 AM 66.2 °F - 66.2 °F 100% 29.83 in 2.0 mi NNW 5.8 mph - N/A   Overcast
6:35 AM 66.2 °F - 66.2 °F 100% 29.83 in 7.0 mi NNW 5.8 mph - N/A   Overcast
6:55 AM 66.2 °F - 66.2 °F 100% 29.84 in 10.0 mi NW 5.8 mph - N/A   Overcast
7:15 AM 66.2 °F - 66.2 °F 100% 29.85 in 10.0 mi NNW 5.8 mph - N/A   Overcast
7:35 AM 68.0 °F - 66.2 °F 94% 29.85 in 10.0 mi NNW 5.8 mph - N/A   Mostly Cloudy
7:55 AM 69.8 °F - 68.0 °F 94% 29.86 in 10.0 mi NNW 5.8 mph - N/A   Scattered Clouds
8:35 AM 69.8 °F - 64.4 °F 83% 29.86 in 10.0 mi NNW 9.2 mph - N/A   Clear
8:55 AM 71.6 °F - 64.4 °F 78% 29.86 in 10.0 mi NNW 10.4 mph - N/A   Clear
9:15 AM 73.4 °F - 64.4 °F 73% 29.87 in 10.0 mi NNW 8.1 mph - N/A   Clear
9:35 AM 71.6 °F - 64.4 °F 78% 29.87 in 10.0 mi NNW 6.9 mph - N/A   Clear
9:55 AM 75.2 °F - 62.6 °F 65% 29.87 in 10.0 mi NNW 10.4 mph - N/A   Clear
10:15 AM 75.2 °F - 62.6 °F 65% 29.88 in 10.0 mi NNW 10.4 mph - N/A   Clear
10:35 AM 75.2 °F - 60.8 °F 61% 29.88 in 10.0 mi NNW 9.2 mph 17.3 mph N/A   Clear
10:55 AM 75.2 °F - 62.6 °F 65% 29.88 in 10.0 mi NW 8.1 mph - N/A   Clear
11:15 AM 75.2 °F - 60.8 °F 61% 29.89 in 10.0 mi NW 8.1 mph 17.3 mph N/A   Clear
11:35 AM 78.8 °F - 62.6 °F 57% 29.89 in 10.0 mi NNW 6.9 mph - N/A   Partly Cloudy
11:55 AM 78.8 °F - 62.6 °F 57% 29.89 in 10.0 mi NNW 8.1 mph - N/A   Scattered Clouds
12:15 PM 78.8 °F - 62.6 °F 57% 29.88 in 10.0 mi NW 4.6 mph - N/A   Partly Cloudy
12:35 PM 77.0 °F - 62.6 °F 61% 29.88 in 10.0 mi WNW 8.1 mph - N/A   Scattered Clouds
12:55 PM 78.8 °F - 60.8 °F 54% 29.88 in 10.0 mi West 8.1 mph 18.4 mph N/A   Partly Cloudy
1:15 PM 78.8 °F - 60.8 °F 54% 29.88 in 10.0 mi WNW 5.8 mph - N/A   Partly Cloudy
1:35 PM 78.8 °F - 60.8 °F 54% 29.88 in 10.0 mi NW 5.8 mph - N/A   Partly Cloudy
1:55 PM 80.6 °F 81.1 °F 59.0 °F 48% 29.87 in 10.0 mi West 10.4 mph - N/A   Partly Cloudy
2:15 PM 80.6 °F 81.5 °F 60.8 °F 51% 29.87 in 10.0 mi SW 6.9 mph - N/A   Clear
2:35 PM 78.8 °F - 64.4 °F 61% 29.87 in 10.0 mi WSW 9.2 mph - N/A   Partly Cloudy
2:55 PM 78.8 °F - 64.4 °F 61% 29.88 in 10.0 mi SSW 9.2 mph - N/A   Partly Cloudy
3:15 PM 80.6 °F 82.3 °F 64.4 °F 58% 29.88 in 10.0 mi SW 8.1 mph - N/A   Partly Cloudy
3:35 PM 78.8 °F - 62.6 °F 57% 29.88 in 10.0 mi SW 9.2 mph 17.3 mph N/A   Scattered Clouds
3:55 PM 78.8 °F - 62.6 °F 57% 29.87 in 10.0 mi SW 6.9 mph - N/A   Partly Cloudy
4:15 PM 78.8 °F - 62.6 °F 57% 29.87 in 10.0 mi WSW 8.1 mph - N/A   Scattered Clouds
4:35 PM 80.6 °F 81.8 °F 62.6 °F 54% 29.86 in 10.0 mi SW 9.2 mph - N/A   Scattered Clouds
4:55 PM 80.6 °F 81.5 °F 60.8 °F 51% 29.86 in 10.0 mi SW 5.8 mph - N/A   Clear
5:15 PM 80.6 °F 81.5 °F 60.8 °F 51% 29.87 in 10.0 mi SW 6.9 mph - N/A   Clear
5:35 PM 78.8 °F - 60.8 °F 54% 29.87 in 10.0 mi WSW 8.1 mph - N/A   Clear
5:55 PM 78.8 °F - 60.8 °F 54% 29.87 in 10.0 mi WSW 5.8 mph - N/A   Clear
6:15 PM 78.8 °F - 60.8 °F 54% 29.87 in 10.0 mi WSW 5.8 mph - N/A   Clear
6:35 PM 77.0 °F - 62.6 °F 61% 29.88 in 10.0 mi SW 4.6 mph - N/A   Clear
6:55 PM 77.0 °F - 62.6 °F 61% 29.87 in 10.0 mi WSW 3.5 mph - N/A   Partly Cloudy
7:15 PM 75.2 °F - 62.6 °F 65% 29.87 in 10.0 mi Calm Calm - N/A   Partly Cloudy
7:35 PM 75.2 °F - 62.6 °F 65% 29.88 in 10.0 mi SSW 5.8 mph - N/A   Partly Cloudy
7:55 PM 75.2 °F - 62.6 °F 65% 29.88 in 10.0 mi SSW 4.6 mph - N/A   Partly Cloudy
8:15 PM 73.4 °F - 62.6 °F 69% 29.89 in 10.0 mi SSW 4.6 mph - N/A   Clear
8:35 PM 71.6 °F - 64.4 °F 78% 29.90 in 10.0 mi SW 4.6 mph - N/A   Clear
8:55 PM 71.6 °F - 64.4 °F 78% 29.90 in 10.0 mi SW 3.5 mph - N/A   Clear
9:15 PM 71.6 °F - 66.2 °F 83% 29.91 in 10.0 mi SW 4.6 mph - N/A   Clear
9:35 PM 71.6 °F - 66.2 °F 83% 29.91 in 10.0 mi SW 3.5 mph - N/A   Clear
9:55 PM 69.8 °F - 68.0 °F 94% 29.91 in 10.0 mi Calm Calm - N/A   Clear
10:15 PM 69.8 °F - 68.0 °F 94% 29.91 in 10.0 mi Calm Calm - N/A   Clear
10:35 PM 69.8 °F - 68.0 °F 94% 29.91 in 10.0 mi Calm Calm - N/A   Clear
10:55 PM 69.8 °F - 68.0 °F 94% 29.91 in 10.0 mi WSW 3.5 mph - N/A   Clear
11:15 PM 69.8 °F - 68.0 °F 94% 29.91 in 10.0 mi WSW 3.5 mph - N/A   Scattered Clouds
11:35 PM 69.8 °F - 68.0 °F 94% 29.91 in 10.0 mi WSW 3.5 mph - N/A   Partly Cloudy
11:55 PM 69.8 °F - 66.2 °F 88% 29.91 in 10.0 mi SW 4.6 mph - N/A   Clear